This is the latest recevied weather packets stored in our database for station/object YO9FTR-10. If no packets are shown the sender has not sent any weather packets the latest 10 day(s).
| Time | Temp. | Humidity | Pressure | Rain* | Wind** | Luminosity | Snow |
|---|---|---|---|---|---|---|---|
| 1777520451 | 2.78° C | 100% | 1025.8 hPa | - | - | - | - |
| 1777519548 | 2.78° C | 100% | 1025.7 hPa | - | - | - | - |
| 1777518645 | 2.78° C | 100% | 1025.7 hPa | - | - | - | - |
| 1777517743 | 2.78° C | 100% | 1025.7 hPa | - | - | - | - |
| 1777516840 | 2.78° C | 100% | 1025.6 hPa | - | - | - | - |
| 1777515936 | 2.78° C | 100% | 1025.6 hPa | - | - | - | - |
| 1777515033 | 2.78° C | 100% | 1025.5 hPa | - | - | - | - |
| 1777514130 | 2.78° C | 98% | 1025.5 hPa | - | - | - | - |
| 1777513228 | 2.78° C | 97% | 1025.5 hPa | - | - | - | - |
| 1777512325 | 3.33° C | 95% | 1025.6 hPa | - | - | - | - |
| 1777511422 | 3.33° C | 90% | 1025.5 hPa | - | - | - | - |
| 1777510519 | 3.33° C | 88% | 1025.4 hPa | - | - | - | - |
| 1777509616 | 3.89° C | 86% | 1025.5 hPa | - | - | - | - |
| 1777508713 | 3.89° C | 84% | 1025.4 hPa | - | - | - | - |
| 1777507810 | 3.89° C | 83% | 1025.4 hPa | - | - | - | - |
| 1777506908 | 4.44° C | 75% | 1025.4 hPa | - | - | - | - |
| 1777506005 | 4.44° C | 71% | 1025.3 hPa | - | - | - | - |
| 1777505102 | 5° C | 69% | 1025.4 hPa | - | - | - | - |
| 1777504200 | 5° C | 66% | 1025.2 hPa | - | - | - | - |
| 1777503296 | 5.56° C | 64% | 1025.1 hPa | - | - | - | - |
| 1777502393 | 5.56° C | 63% | 1025.2 hPa | - | - | - | - |
| 1777501490 | 5.56° C | 63% | 1025.3 hPa | - | - | - | - |
| 1777500588 | 5.56° C | 65% | 1025.4 hPa | - | - | - | - |
| 1777499685 | 5.56° C | 61% | 1025.2 hPa | - | - | - | - |
| 1777498782 | 6.11° C | 61% | 1025.2 hPa | - | - | - | - |
* Rain since midnight (hover to see other rain measurements)
** Current wind speed in m/s (hover to see current wind gust speed)